Terug naar catalogus

ICEYE-X7

ActiefWetenschapSSO
NORAD 46496·PAYLOAD·🇫🇮 Finland

Gelanceerd Sep 28, 2020 vanaf Plesetsk Cosmodrome

Loading…

Volgende Passages (komende 24 uur)

TLE

VersSource: Space-Track

Epoch: Sep 14, 2026, 22:16 UTC

1 46496U 20068L   26257.92818067  .00010424  00000-0  32733-3 0  9990
2 46496  97.7596 228.6935 0007950  24.6340 335.5279 15.33189748328533

Volg ICEYE-X7 in realtime met AllMySat

Download on the App Store